Regional Weather Roundup
Issued by NWS

Home | Current Version | Previous Version | Text Only | Print | Product List | Glossary On
Versions: 1 2 3 4 5 6 7 8 9 10 11 12 13 14 15 16 17 18 19 20 21 22 23 24 25 26 27 28 29 30 31 32 33 34 35 36 37 38 39 40 41 42 43 44 45 46 47 48 49 50
000
ASUS46 KPQR 131210
RWROR

OREGON REGIONAL WEATHER ROUNDUP
NATIONAL WEATHER SERVICE PORTLAND OR
500 AM PDT SUN JUL 13 2014

NOTE: "FAIR" INDICATES FEW OR NO CLOUDS BELOW 12,000 FEET WITH
NO SIGNIFICANT WEATHER AND/OR OBSTRUCTIONS TO VISIBILITY.

ORZ001>013-131300-
NORTHWEST OREGON


CITY           SKY/WX    TMP DP  RH WIND       PRES   REMARKS
ASTORIA        CLOUDY    58  54  86 NW8       30.12S
6HR MIN TEMP:  57; 6HR MAX TEMP:  58;

NEWPORT        CLOUDY    55  55 100 CALM      30.15S FOG
PORTLAND       PTCLDY    64  58  80 NW5       30.06F
6HR MIN TEMP:  64; 6HR MAX TEMP:  76;

VANCOUVER WA   CLEAR     63  56  78 NW5       30.06S
6HR MIN TEMP:  63; 6HR MAX TEMP:  77;

SCAPPOOSE      CLEAR     60  56  86 CALM      30.05F
6HR MIN TEMP:  60; 6HR MAX TEMP:  74;

HILLSBORO      CLEAR     61  56  83 CALM      30.05F
6HR MIN TEMP:  60; 6HR MAX TEMP:  74;

AURORA         CLEAR     60  57  89 CALM      30.07S
6HR MIN TEMP:  60; 6HR MAX TEMP:  72;

MCMINNVILLE    CLEAR     57  55  93 W5        30.08R
6HR MIN TEMP:  57; 6HR MAX TEMP:  64;

SALEM          CLEAR     61  56  83 NW5       30.06S
6HR MIN TEMP:  60; 6HR MAX TEMP:  70;

CORVALLIS      PTCLDY    57  54  88 NW13      30.09S
EUGENE         PTCLDY    59  55  87 SW6       30.09R
6HR MIN TEMP:  59; 6HR MAX TEMP:  64;

$$

ORZ021-028-131300-
SOUTHWEST OREGON


CITY           SKY/WX    TMP DP  RH WIND       PRES   REMARKS
NORTH BEND     CLOUDY    57  57 100 W5        30.14S
6HR MIN TEMP:  57; 6HR MAX TEMP:  57;

BROOKINGS      CLOUDY    54  53  96 CALM      30.13S
ROSEBURG       MOCLDY    63  55  75 NW8       30.08R
6HR MIN TEMP:  63; 6HR MAX TEMP:  74;

SEXTON SUMMIT  MOCLDY    64  57  78 N5        30.16F
6HR MIN TEMP:  64; 6HR MAX TEMP:  72;

MEDFORD        CLOUDY    73  59  61 CALM      30.04R
6HR MIN TEMP:  73; 6HR MAX TEMP:  83;

$$

ORZ009-041-131300-
COLUMBIA GORGE


CITY           SKY/WX    TMP DP  RH WIND       PRES   REMARKS
TROUTDALE      CLEAR     66  60  81 W3        30.04F
6HR MIN TEMP:  65; 6HR MAX TEMP:  76;

THE DALLES     PTCLDY    73  61  65 NW13      30.00S
6HR MIN TEMP:  73; 6HR MAX TEMP:  85;

$$

ORZ029>031-042>050-061>064-131300-
EASTERN OREGON


CITY           SKY/WX    TMP DP  RH WIND       PRES   REMARKS
REDMOND        MOCLDY    60  47  61 S6        30.15S
6HR MIN TEMP:  60; 6HR MAX TEMP:  78;

BEND           MOSUNNY   64  45  48 CALM      30.18S
KLAMATH FALLS  PTCLDY    62  55  77 CALM      30.17R
6HR MIN TEMP:  60; 6HR MAX TEMP:  79;

LAKEVIEW       CLEAR     61  45  55 N10       30.23S
HERMISTON      MOCLDY    60  52  74 SE3       30.02R
6HR MIN TEMP:  60; 6HR MAX TEMP:  79;

PENDLETON      MOCLDY    68  43  40 E10       30.05S
6HR MIN TEMP:  67; 6HR MAX TEMP:  80;

MEACHAM        MOCLDY    49  45  86 CALM      30.22S
6HR MIN TEMP:  49; 6HR MAX TEMP:  59;

LA GRANDE      PTCLDY    57  39  51 CALM      30.17S
6HR MIN TEMP:  57; 6HR MAX TEMP:  72;

BAKER CITY     PTCLDY    51  45  79 N3        30.20R
6HR MIN TEMP:  51; 6HR MAX TEMP:  66;

BURNS          CLEAR     55  41  59 W5        30.21S
6HR MIN TEMP:  53; 6HR MAX TEMP:  68;

ROME             N/A     61  41  47 S6        30.18S
6HR MIN TEMP:  60; 6HR MAX TEMP:  73;

ONTARIO        NOT AVBL
$$


USA.gov is the U.S. government's official web portal to all federal, state and local government web resources and services.